Year,Month,Day,Hour,Minute,Value (Times are PST for temperature in C)
2016,08,15,08,24,17.10
2016,08,15,08,25,17.10
2016,08,15,08,26,17.10
2016,08,15,08,27,17.20
2016,08,15,08,28,17.20
2016,08,15,08,29,17.30
2016,08,15,08,30,17.30
2016,08,15,08,31,17.30
2016,08,15,08,32,17.40
2016,08,15,08,33,17.40
2016,08,15,08,34,17.50
2016,08,15,08,35,17.50
2016,08,15,08,36,17.60
2016,08,15,08,37,17.60
2016,08,15,08,38,17.70
2016,08,15,08,39,17.70
2016,08,15,08,40,17.70
2016,08,15,08,41,17.70
2016,08,15,08,42,17.80
2016,08,15,08,43,17.80
2016,08,15,08,44,17.80
2016,08,15,08,45,17.90
2016,08,15,08,46,17.90
2016,08,15,08,47,17.90
2016,08,15,08,48,17.90
2016,08,15,08,49,18.00
2016,08,15,08,50,18.00
2016,08,15,08,51,18.10
2016,08,15,08,52,18.10
2016,08,15,08,53,18.10
2016,08,15,08,54,18.10
2016,08,15,08,55,18.10
2016,08,15,08,56,18.10
2016,08,15,08,57,18.20
2016,08,15,08,58,18.20
2016,08,15,08,59,18.20
2016,08,15,09,00,18.20
2016,08,15,09,01,18.20
2016,08,15,09,02,18.30
2016,08,15,09,03,18.30
2016,08,15,09,04,18.30
2016,08,15,09,05,18.30
2016,08,15,09,06,18.30
2016,08,15,09,07,18.40
2016,08,15,09,08,18.40
2016,08,15,09,09,18.40
2016,08,15,09,10,18.50
2016,08,15,09,11,18.50
2016,08,15,09,12,18.50
2016,08,15,09,13,18.50
2016,08,15,09,14,18.50
2016,08,15,09,15,18.50
2016,08,15,09,16,18.50
2016,08,15,09,17,18.50
2016,08,15,09,18,18.50
2016,08,15,09,19,18.50
2016,08,15,09,20,18.60
2016,08,15,09,21,18.60
2016,08,15,09,22,18.60
2016,08,15,09,23,18.60
2016,08,15,09,24,18.60
2016,08,15,09,25,18.60
2016,08,15,09,26,18.60
2016,08,15,09,27,18.60
2016,08,15,09,28,18.60
2016,08,15,09,29,18.60
2016,08,15,09,30,18.60
2016,08,15,09,31,18.70
2016,08,15,09,32,18.70
2016,08,15,09,33,18.70
2016,08,15,09,34,18.70
2016,08,15,09,35,18.70
2016,08,15,09,36,18.80
2016,08,15,09,37,18.80
2016,08,15,09,38,18.90
2016,08,15,09,39,18.90
2016,08,15,09,40,18.90
2016,08,15,09,41,19.00
2016,08,15,09,42,19.00
2016,08,15,09,43,19.10
2016,08,15,09,44,19.10
2016,08,15,09,45,19.20
2016,08,15,09,46,19.30
2016,08,15,09,47,19.30
2016,08,15,09,48,19.40
2016,08,15,09,49,19.40
2016,08,15,09,50,19.50
2016,08,15,09,51,19.60
2016,08,15,09,52,19.60
2016,08,15,09,53,19.60
2016,08,15,09,54,19.60
2016,08,15,09,55,19.70
2016,08,15,09,56,19.70
2016,08,15,09,57,19.80
2016,08,15,09,58,19.80
2016,08,15,09,59,19.80
2016,08,15,10,00,19.80
2016,08,15,10,01,19.90
2016,08,15,10,02,19.90
2016,08,15,10,03,19.90
2016,08,15,10,04,19.90
2016,08,15,10,05,20.00
2016,08,15,10,06,20.00
2016,08,15,10,07,20.00
2016,08,15,10,08,20.00
2016,08,15,10,09,20.00
2016,08,15,10,10,20.00
2016,08,15,10,11,20.00
2016,08,15,10,12,20.00
2016,08,15,10,13,20.10
2016,08,15,10,14,20.10
2016,08,15,10,15,20.10
2016,08,15,10,16,20.20
2016,08,15,10,17,20.30
2016,08,15,10,18,20.30
2016,08,15,10,19,20.30
2016,08,15,10,20,20.30
2016,08,15,10,21,20.40
2016,08,15,10,22,20.40
2016,08,15,10,23,20.50
2016,08,15,10,24,20.60
2016,08,15,10,25,20.70
2016,08,15,10,26,20.80
2016,08,15,10,27,20.80
2016,08,15,10,28,20.80
2016,08,15,10,29,20.90
2016,08,15,10,30,21.00
2016,08,15,10,31,21.00
2016,08,15,10,32,21.10
2016,08,15,10,33,21.10
2016,08,15,10,34,21.20
2016,08,15,10,35,21.20
2016,08,15,10,36,21.30
2016,08,15,10,37,21.30
2016,08,15,10,38,21.30
2016,08,15,10,39,21.30
2016,08,15,10,40,21.30
2016,08,15,10,41,21.30
2016,08,15,10,42,21.30
2016,08,15,10,43,21.30
2016,08,15,10,44,21.30
2016,08,15,10,45,21.30
2016,08,15,10,46,21.30
2016,08,15,10,47,21.40
2016,08,15,10,48,21.40
2016,08,15,10,49,21.30
2016,08,15,10,50,21.30
2016,08,15,10,51,21.30
2016,08,15,10,52,21.40
2016,08,15,10,53,21.40
2016,08,15,10,54,21.50
2016,08,15,10,55,21.60
2016,08,15,10,56,21.70
2016,08,15,10,57,21.70
2016,08,15,10,58,21.80
2016,08,15,10,59,21.80
2016,08,15,11,00,21.90
2016,08,15,11,01,21.90
2016,08,15,11,02,22.00
2016,08,15,11,03,22.10
2016,08,15,11,04,22.10
2016,08,15,11,05,22.20
2016,08,15,11,06,22.30
2016,08,15,11,07,22.40
2016,08,15,11,08,22.40
2016,08,15,11,09,22.50
2016,08,15,11,10,22.60
2016,08,15,11,11,22.60
2016,08,15,11,12,22.70
2016,08,15,11,13,22.70
2016,08,15,11,14,22.80
2016,08,15,11,15,22.90
2016,08,15,11,16,22.90
2016,08,15,11,17,22.90
2016,08,15,11,18,22.80
2016,08,15,11,19,22.70
2016,08,15,11,20,22.60
2016,08,15,11,21,22.50
2016,08,15,11,22,22.40
2016,08,15,11,23,22.30
2016,08,15,11,24,22.30
2016,08,15,11,25,22.30
2016,08,15,11,26,22.20
2016,08,15,11,27,22.20
2016,08,15,11,28,22.20
2016,08,15,11,29,22.20
2016,08,15,11,30,22.20
2016,08,15,11,31,22.20
2016,08,15,11,32,22.20
2016,08,15,11,33,22.20
2016,08,15,11,34,22.30
2016,08,15,11,35,22.20
2016,08,15,11,36,22.20
2016,08,15,11,37,22.20
2016,08,15,11,38,22.10
2016,08,15,11,39,22.10
2016,08,15,11,40,22.10
2016,08,15,11,41,22.10
2016,08,15,11,42,22.10
2016,08,15,11,43,22.20
2016,08,15,11,44,22.20
2016,08,15,11,45,22.30
2016,08,15,11,46,22.40
2016,08,15,11,47,22.40
2016,08,15,11,48,22.50
2016,08,15,11,49,22.50
2016,08,15,11,50,22.40
2016,08,15,11,51,22.40
2016,08,15,11,52,22.30
2016,08,15,11,53,22.30
2016,08,15,11,54,22.30
2016,08,15,11,55,22.30
2016,08,15,11,56,22.30
2016,08,15,11,57,22.30
2016,08,15,11,58,22.40
2016,08,15,11,59,22.50
2016,08,15,12,00,22.50
2016,08,15,12,01,22.60
2016,08,15,12,02,22.60
2016,08,15,12,03,22.60
2016,08,15,12,04,22.60
2016,08,15,12,05,22.60
2016,08,15,12,06,22.60
2016,08,15,12,07,22.60
2016,08,15,12,08,22.50
2016,08,15,12,09,22.40
2016,08,15,12,10,22.40
2016,08,15,12,11,22.50
2016,08,15,12,12,22.50
2016,08,15,12,13,22.50
2016,08,15,12,14,22.60
2016,08,15,12,15,22.60
2016,08,15,12,16,22.70
2016,08,15,12,17,22.70
2016,08,15,12,18,22.70
2016,08,15,12,19,22.70
2016,08,15,12,20,22.70
2016,08,15,12,21,22.70
2016,08,15,12,22,22.70
2016,08,15,12,23,22.70
2016,08,15,12,24,22.70
2016,08,15,12,25,22.70
2016,08,15,12,26,22.80
2016,08,15,12,27,22.80
2016,08,15,12,28,22.90
2016,08,15,12,29,22.90
2016,08,15,12,30,23.00
2016,08,15,12,31,23.10
2016,08,15,12,32,23.20
2016,08,15,12,33,23.30
2016,08,15,12,34,23.40
2016,08,15,12,35,23.40
2016,08,15,12,36,23.40
2016,08,15,12,37,23.40
2016,08,15,12,38,23.50
2016,08,15,12,39,23.50
2016,08,15,12,40,23.60
2016,08,15,12,41,23.60
2016,08,15,12,42,23.70
2016,08,15,12,43,23.80
2016,08,15,12,44,23.80
2016,08,15,12,45,23.80
2016,08,15,12,46,23.90
2016,08,15,12,47,23.90
2016,08,15,12,48,24.00
2016,08,15,12,49,24.00
2016,08,15,12,50,24.00
2016,08,15,12,51,24.00
2016,08,15,12,52,24.00
2016,08,15,12,53,24.00
2016,08,15,12,54,24.10
2016,08,15,12,55,24.20
2016,08,15,12,56,24.30
2016,08,15,12,57,24.40
2016,08,15,12,58,24.40
2016,08,15,12,59,24.30
2016,08,15,13,00,24.20
2016,08,15,13,01,24.10
2016,08,15,13,02,24.00
2016,08,15,13,03,23.90
2016,08,15,13,04,23.90
2016,08,15,13,05,23.90
2016,08,15,13,06,23.90
2016,08,15,13,07,24.00
2016,08,15,13,08,24.00
2016,08,15,13,09,23.90
2016,08,15,13,10,23.80
2016,08,15,13,11,23.80
2016,08,15,13,12,23.90
2016,08,15,13,13,23.90
2016,08,15,13,14,24.00
2016,08,15,13,15,24.10
2016,08,15,13,16,24.20
2016,08,15,13,17,24.40
2016,08,15,13,18,24.50
2016,08,15,13,19,24.60
2016,08,15,13,20,24.70
2016,08,15,13,21,24.70
2016,08,15,13,22,24.80
2016,08,15,13,23,24.90
2016,08,15,13,24,25.00
2016,08,15,13,25,25.00
2016,08,15,13,26,25.00
2016,08,15,13,27,25.00
2016,08,15,13,28,25.00
2016,08,15,13,29,25.00
2016,08,15,13,30,25.00
2016,08,15,13,31,25.10
2016,08,15,13,32,25.10
2016,08,15,13,33,25.10
2016,08,15,13,34,25.10
2016,08,15,13,35,25.10
2016,08,15,13,36,25.10
2016,08,15,13,37,25.00
2016,08,15,13,38,25.00
2016,08,15,13,39,25.00
2016,08,15,13,40,25.00
2016,08,15,13,41,24.90
2016,08,15,13,42,24.90
2016,08,15,13,43,24.90
2016,08,15,13,44,24.90
2016,08,15,13,45,24.90
2016,08,15,13,46,24.80
2016,08,15,13,47,24.80
2016,08,15,13,48,24.60
2016,08,15,13,49,24.50
2016,08,15,13,50,24.40
2016,08,15,13,51,24.30
2016,08,15,13,52,24.30
2016,08,15,13,53,24.20
2016,08,15,13,54,24.10
2016,08,15,13,55,24.00
2016,08,15,13,56,23.80
2016,08,15,13,57,23.70
2016,08,15,13,58,23.60
2016,08,15,13,59,23.60
2016,08,15,14,00,23.50
2016,08,15,14,01,23.50
2016,08,15,14,02,23.50
2016,08,15,14,03,23.50
2016,08,15,14,04,23.40
2016,08,15,14,05,23.40
2016,08,15,14,06,23.30
2016,08,15,14,07,23.30
2016,08,15,14,08,23.10
2016,08,15,14,09,23.00
2016,08,15,14,10,23.00
2016,08,15,14,11,23.00
2016,08,15,14,12,22.90
2016,08,15,14,13,22.90
2016,08,15,14,14,22.90
2016,08,15,14,15,22.90
2016,08,15,14,16,22.90
2016,08,15,14,17,22.90
2016,08,15,14,18,22.90
2016,08,15,14,19,23.00
2016,08,15,14,20,23.00
2016,08,15,14,21,23.00
2016,08,15,14,22,23.00
2016,08,15,14,23,23.00
2016,08,15,14,24,23.10
2016,08,15,14,25,23.10
2016,08,15,14,26,23.10
2016,08,15,14,27,23.10
2016,08,15,14,28,23.20
2016,08,15,14,29,23.20
2016,08,15,14,30,23.20
2016,08,15,14,31,23.20
2016,08,15,14,32,23.20
2016,08,15,14,33,23.20
2016,08,15,14,34,23.20
2016,08,15,14,35,23.20
2016,08,15,14,36,23.30
2016,08,15,14,37,23.30
2016,08,15,14,38,23.30
2016,08,15,14,39,23.30
2016,08,15,14,40,23.30
2016,08,15,14,41,23.30
2016,08,15,14,42,23.40
2016,08,15,14,43,23.40
2016,08,15,14,44,23.50
2016,08,15,14,45,23.50
2016,08,15,14,46,23.60
2016,08,15,14,47,23.70
2016,08,15,14,48,23.80
2016,08,15,14,49,23.80
2016,08,15,14,50,23.80
2016,08,15,14,51,23.80
2016,08,15,14,52,23.80
2016,08,15,14,53,23.70
2016,08,15,14,54,23.70
2016,08,15,14,55,23.70
2016,08,15,14,56,23.70
2016,08,15,14,57,23.70
2016,08,15,14,58,23.80
2016,08,15,14,59,23.80
2016,08,15,15,00,23.80
2016,08,15,15,01,23.80
2016,08,15,15,02,23.80
2016,08,15,15,03,23.80
2016,08,15,15,04,23.90
2016,08,15,15,05,24.00
2016,08,15,15,06,24.10
2016,08,15,15,07,24.20
2016,08,15,15,08,24.20
2016,08,15,15,09,24.30
2016,08,15,15,10,24.30
2016,08,15,15,11,24.30
2016,08,15,15,12,24.20
2016,08,15,15,13,24.20
2016,08,15,15,14,24.20
2016,08,15,15,15,24.20
2016,08,15,15,16,24.20
2016,08,15,15,17,24.20
2016,08,15,15,18,24.20
2016,08,15,15,19,24.20
2016,08,15,15,20,24.10
2016,08,15,15,21,24.00
2016,08,15,15,22,24.00
2016,08,15,15,23,24.00
2016,08,15,15,24,24.00
2016,08,15,15,25,23.90
2016,08,15,15,26,23.80
2016,08,15,15,27,23.80
2016,08,15,15,28,23.70
2016,08,15,15,29,23.70
2016,08,15,15,30,23.60
2016,08,15,15,31,23.60
2016,08,15,15,32,23.60
2016,08,15,15,33,23.60
2016,08,15,15,34,23.60
2016,08,15,15,35,23.70
2016,08,15,15,36,23.70
2016,08,15,15,37,23.70
2016,08,15,15,38,23.70
2016,08,15,15,39,23.70
2016,08,15,15,40,23.80
2016,08,15,15,41,23.80
2016,08,15,15,42,23.80
2016,08,15,15,43,23.80
2016,08,15,15,44,23.80
2016,08,15,15,45,23.80
2016,08,15,15,46,23.80
2016,08,15,15,47,23.80
2016,08,15,15,48,23.80
2016,08,15,15,49,23.80
2016,08,15,15,50,23.70
2016,08,15,15,51,23.70
2016,08,15,15,52,23.70
2016,08,15,15,53,23.70
2016,08,15,15,54,23.70
2016,08,15,15,55,23.70
2016,08,15,15,56,23.70
2016,08,15,15,57,23.70
2016,08,15,15,58,23.60
2016,08,15,15,59,23.60
2016,08,15,16,00,23.50
2016,08,15,16,01,23.50
2016,08,15,16,02,23.40
2016,08,15,16,03,23.40
2016,08,15,16,04,23.50
2016,08,15,16,05,23.50
2016,08,15,16,06,23.50
2016,08,15,16,07,23.50
2016,08,15,16,08,23.50
2016,08,15,16,09,23.40
2016,08,15,16,10,23.30
2016,08,15,16,11,23.30
2016,08,15,16,12,23.30
2016,08,15,16,13,23.40
2016,08,15,16,14,23.40
2016,08,15,16,15,23.40
2016,08,15,16,16,23.40
2016,08,15,16,17,23.40
2016,08,15,16,18,23.30
2016,08,15,16,19,23.30
2016,08,15,16,20,23.30
2016,08,15,16,21,23.30
2016,08,15,16,22,23.30
2016,08,15,16,23,23.20
2016,08,15,16,24,23.20
2016,08,15,16,25,23.20
2016,08,15,16,26,23.20
2016,08,15,16,27,23.30
2016,08,15,16,28,23.30
2016,08,15,16,29,23.30
2016,08,15,16,30,23.30
2016,08,15,16,31,23.40
2016,08,15,16,32,23.40
2016,08,15,16,33,23.40
2016,08,15,16,34,23.30
2016,08,15,16,35,23.30
2016,08,15,16,36,23.20
2016,08,15,16,37,23.20
2016,08,15,16,38,23.20
2016,08,15,16,39,23.20
2016,08,15,16,40,23.20
2016,08,15,16,41,23.20
2016,08,15,16,42,23.30
2016,08,15,16,43,23.30
2016,08,15,16,44,23.40
2016,08,15,16,45,23.40
2016,08,15,16,46,23.40
2016,08,15,16,47,23.40
2016,08,15,16,48,23.30
2016,08,15,16,49,23.20
2016,08,15,16,50,23.10
2016,08,15,16,51,23.10
2016,08,15,16,52,23.00
2016,08,15,16,53,22.90
2016,08,15,16,54,22.80
2016,08,15,16,55,22.80
2016,08,15,16,56,22.80
2016,08,15,16,57,22.80
2016,08,15,16,58,22.80
2016,08,15,16,59,22.80
2016,08,15,17,00,22.80
2016,08,15,17,01,22.80
2016,08,15,17,02,22.80
2016,08,15,17,03,22.80
2016,08,15,17,04,22.80
2016,08,15,17,05,22.90
2016,08,15,17,06,22.90
2016,08,15,17,07,22.80
2016,08,15,17,08,22.90
2016,08,15,17,09,22.90
2016,08,15,17,10,23.00
2016,08,15,17,11,23.10
2016,08,15,17,12,23.10
2016,08,15,17,13,23.20
2016,08,15,17,14,23.20
2016,08,15,17,15,23.20
2016,08,15,17,16,23.30
2016,08,15,17,17,23.30
2016,08,15,17,18,23.30
2016,08,15,17,19,23.30
2016,08,15,17,20,23.30
2016,08,15,17,21,23.30
2016,08,15,17,22,23.30
2016,08,15,17,23,23.20
2016,08,15,17,24,23.20
2016,08,15,17,25,23.30
2016,08,15,17,26,23.30
2016,08,15,17,27,23.30
2016,08,15,17,28,23.30
2016,08,15,17,29,23.30
2016,08,15,17,30,23.30
2016,08,15,17,31,23.30
2016,08,15,17,32,23.40
2016,08,15,17,33,23.40
2016,08,15,17,34,23.40
2016,08,15,17,35,23.40
2016,08,15,17,36,23.50
2016,08,15,17,37,23.50
2016,08,15,17,38,23.50
2016,08,15,17,39,23.50
2016,08,15,17,40,23.60
2016,08,15,17,41,23.50
2016,08,15,17,42,23.50
2016,08,15,17,43,23.50
2016,08,15,17,44,23.50
2016,08,15,17,45,23.50
2016,08,15,17,46,23.50
2016,08,15,17,47,23.60
2016,08,15,17,48,23.60
2016,08,15,17,49,23.60
2016,08,15,17,50,23.50
2016,08,15,17,51,23.40
2016,08,15,17,52,23.30
2016,08,15,17,53,23.30
2016,08,15,17,54,23.30
2016,08,15,17,55,23.20
2016,08,15,17,56,23.20
2016,08,15,17,57,23.10
2016,08,15,17,58,22.90
2016,08,15,17,59,22.80
2016,08,15,18,00,22.80
2016,08,15,18,01,22.70
2016,08,15,18,02,22.60
2016,08,15,18,03,22.50
2016,08,15,18,04,22.40
2016,08,15,18,05,22.40
2016,08,15,18,06,22.30
2016,08,15,18,07,22.30
2016,08,15,18,08,22.20
2016,08,15,18,09,22.20
2016,08,15,18,10,22.10
2016,08,15,18,11,22.00
2016,08,15,18,12,22.00
2016,08,15,18,13,21.90
2016,08,15,18,14,21.70
2016,08,15,18,15,21.60
2016,08,15,18,16,21.50
2016,08,15,18,17,21.40
2016,08,15,18,18,21.40
2016,08,15,18,19,21.30
2016,08,15,18,20,21.20
2016,08,15,18,21,21.20
2016,08,15,18,22,21.10
2016,08,15,18,23,21.00
2016,08,15,18,24,21.00
2016,08,15,18,25,20.90
2016,08,15,18,26,20.80
2016,08,15,18,27,20.80
2016,08,15,18,28,20.80
2016,08,15,18,29,20.70
2016,08,15,18,30,20.60
2016,08,15,18,31,20.60
2016,08,15,18,32,20.50
2016,08,15,18,33,20.40
2016,08,15,18,34,20.40
2016,08,15,18,35,20.40
2016,08,15,18,36,20.40
2016,08,15,18,37,20.40
2016,08,15,18,38,20.40
2016,08,15,18,39,20.40
2016,08,15,18,40,20.40
2016,08,15,18,41,20.40
2016,08,15,18,42,20.40
2016,08,15,18,43,20.40
2016,08,15,18,44,20.40
2016,08,15,18,45,20.40
